CEB24 RPLL-RPVD

Flight info

Callsign CEB24
Flight time 0h 58m
Altitude 31000
Route VERDE4V VERDE A461 SAJ W3 IOO B472 NANAS NANAS1W
Aircraft A320/M-SDE3FGHIRWY/LB1

Departure

Time 2026-04-21 14:47
Airport Ninoy Aquino International Airport (RPLL)

Arrival

Time 2026-04-21 15:45
Airport Sibulan Airport (RPVD)
Time Latitude Longitude Altitude Speed Heading
2026-04-21 14:33 14.52194 121.00995 62 ft 0 kts 45°
2026-04-21 14:40 14.52191 121.00992 64 ft 3 kts 45°
2026-04-21 14:41 14.52172 121.00973 64 ft 4 kts 45°
2026-04-21 14:41 14.52153 121.00953 62 ft 4 kts 45°
2026-04-21 14:41 14.52137 121.00937 62 ft 4 kts 42°
2026-04-21 14:41 14.52115 121.00924 62 ft 4 kts 357°
2026-04-21 14:42 14.52093 121.00933 60 ft 2 kts 315°
2026-04-21 14:42 14.52108 121.00918 63 ft 4 kts 315°
2026-04-21 14:42 14.52127 121.00898 62 ft 4 kts 315°
2026-04-21 14:42 14.52146 121.00878 62 ft 4 kts 315°
2026-04-21 14:43 14.52162 121.00861 60 ft 1 kts 315°
2026-04-21 14:43 14.52163 121.00861 60 ft 0 kts 315°
2026-04-21 14:45 14.52208 121.00814 64 ft 18 kts 315°
2026-04-21 14:45 14.52336 121.00682 62 ft 33 kts 315°
2026-04-21 14:45 14.52474 121.00540 65 ft 13 kts 315°
2026-04-21 14:45 14.52479 121.00485 63 ft 8 kts 229°
2026-04-21 14:46 14.52441 121.00445 65 ft 6 kts 226°
2026-04-21 14:46 14.52432 121.00435 62 ft 1 kts 227°
2026-04-21 14:46 14.52375 121.00391 64 ft 14 kts 181°
2026-04-21 14:46 14.52336 121.00431 63 ft 1 kts 136°
2026-04-21 14:47 14.52125 121.00647 63 ft 89 kts 134°
2026-04-21 14:47 14.51521 121.01274 171 ft 150 kts 134°
2026-04-21 14:47 14.50750 121.02059 906 ft 158 kts 134°
2026-04-21 14:47 14.49969 121.02865 1830 ft 161 kts 131°
2026-04-21 14:48 14.49141 121.03728 2487 ft 179 kts 131°
2026-04-21 14:48 14.48046 121.04502 2899 ft 209 kts 160°
2026-04-21 14:48 14.46482 121.04619 3378 ft 242 kts 176°
2026-04-21 14:48 14.44706 121.04597 4119 ft 265 kts 179°
2026-04-21 14:49 14.42830 121.04553 5202 ft 272 kts 179°
2026-04-21 14:49 14.40918 121.04504 6319 ft 278 kts 180°
2026-04-21 14:49 14.38964 121.04458 7384 ft 284 kts 179°
2026-04-21 14:49 14.36962 121.04417 8468 ft 289 kts 179°
2026-04-21 14:50 14.35618 121.04394 9181 ft 293 kts 178°
2026-04-21 14:50 14.32851 121.04351 10397 ft 308 kts 178°
2026-04-21 14:50 14.30654 121.04323 10962 ft 327 kts 179°
2026-04-21 14:50 14.28346 121.04293 11823 ft 335 kts 179°
2026-04-21 14:51 14.25992 121.04261 12757 ft 340 kts 179°
2026-04-21 14:51 14.23613 121.04228 13672 ft 345 kts 180°
2026-04-21 14:51 14.21198 121.04193 14470 ft 349 kts 180°
2026-04-21 14:51 14.18745 121.04158 15253 ft 354 kts 180°
2026-04-21 14:52 14.16269 121.04120 16031 ft 358 kts 180°
2026-04-21 14:52 14.13767 121.04080 16793 ft 362 kts 180°
2026-04-21 14:52 14.11229 121.04041 17564 ft 366 kts 181°
2026-04-21 14:52 14.08704 121.04004 18305 ft 370 kts 181°
2026-04-21 14:53 14.06113 121.03968 18958 ft 373 kts 181°
2026-04-21 14:53 14.03511 121.03932 19597 ft 376 kts 181°
2026-04-21 14:53 14.00895 121.03897 19857 ft 376 kts 181°
2026-04-21 14:53 13.98275 121.03859 19943 ft 376 kts 181°
2026-04-21 14:54 13.95663 121.03821 19957 ft 376 kts 181°
2026-04-21 14:54 13.93030 121.03782 20289 ft 381 kts 181°
2026-04-21 14:54 13.90372 121.03742 21024 ft 382 kts 181°
2026-04-21 14:54 13.87706 121.03703 21709 ft 385 kts 181°
2026-04-21 14:55 13.84950 121.03668 22378 ft 388 kts 182°
2026-04-21 14:55 13.82242 121.03633 23018 ft 390 kts 182°
2026-04-21 14:55 13.79519 121.03596 23625 ft 393 kts 182°
2026-04-21 14:55 13.76772 121.03556 24128 ft 396 kts 182°
2026-04-21 14:56 13.73993 121.03514 24627 ft 400 kts 182°
2026-04-21 14:56 13.71196 121.03472 25110 ft 403 kts 182°
2026-04-21 14:56 13.68382 121.03431 25593 ft 407 kts 182°
2026-04-21 14:56 13.65534 121.03391 26070 ft 410 kts 182°
2026-04-21 14:57 13.62707 121.03353 26541 ft 414 kts 182°
2026-04-21 14:57 13.59817 121.03311 27014 ft 417 kts 182°
2026-04-21 14:57 13.56866 121.03270 27491 ft 421 kts 182°
2026-04-21 14:57 13.53921 121.03229 27963 ft 424 kts 182°
2026-04-21 14:58 13.50996 121.03186 28418 ft 428 kts 182°
2026-04-21 14:58 13.48004 121.03156 28873 ft 431 kts 181°
2026-04-21 14:58 13.44989 121.03167 29333 ft 434 kts 181°
2026-04-21 14:58 13.41953 121.03206 29791 ft 438 kts 180°
2026-04-21 14:59 13.38888 121.03259 30212 ft 441 kts 180°
2026-04-21 14:59 13.35803 121.03315 30619 ft 444 kts 180°
2026-04-21 14:59 13.32707 121.03363 30893 ft 446 kts 181°
2026-04-21 15:00 13.26665 121.03428 30976 ft 419 kts 181°
2026-04-21 15:00 13.23777 121.03454 30980 ft 404 kts 181°
2026-04-21 15:00 13.20995 121.03478 30976 ft 398 kts 181°
2026-04-21 15:01 13.15515 121.03525 30983 ft 395 kts 181°
2026-04-21 15:01 13.10013 121.03578 30985 ft 395 kts 181°
2026-04-21 15:02 13.04516 121.03631 30974 ft 394 kts 181°
2026-04-21 15:02 12.99022 121.03687 30979 ft 394 kts 181°
2026-04-21 15:03 12.94453 121.04025 30989 ft 408 kts 166°
2026-04-21 15:03 12.90951 121.05788 30983 ft 433 kts 148°
2026-04-21 15:03 12.88437 121.07522 30978 ft 448 kts 147°
2026-04-21 15:03 12.85816 121.09354 30972 ft 461 kts 147°
2026-04-21 15:04 12.84014 121.10622 30978 ft 469 kts 147°
2026-04-21 15:04 12.80389 121.13174 30976 ft 482 kts 147°
2026-04-21 15:04 12.78549 121.14466 30981 ft 485 kts 147°
2026-04-21 15:05 12.72949 121.18384 30973 ft 488 kts 147°
2026-04-21 15:05 12.63615 121.24879 30964 ft 487 kts 147°
2026-04-21 15:06 12.58947 121.28128 30956 ft 487 kts 147°
2026-04-21 15:06 12.53335 121.32033 30949 ft 487 kts 147°
2026-04-21 15:07 12.47724 121.35929 30954 ft 487 kts 147°
2026-04-21 15:07 12.42121 121.39823 30948 ft 487 kts 147°
2026-04-21 15:08 12.36508 121.43725 30947 ft 487 kts 147°
2026-04-21 15:08 12.30899 121.47618 30941 ft 487 kts 147°
2026-04-21 15:09 12.25326 121.51478 30943 ft 486 kts 147°
2026-04-21 15:09 12.19728 121.55361 30941 ft 486 kts 147°
2026-04-21 15:10 12.14120 121.59250 30939 ft 486 kts 147°
2026-04-21 15:10 12.08503 121.63136 30941 ft 486 kts 147°
2026-04-21 15:11 12.02951 121.66982 30939 ft 485 kts 147°
2026-04-21 15:11 11.97322 121.70877 30936 ft 485 kts 147°
2026-04-21 15:12 11.91762 121.74724 30935 ft 485 kts 147°
2026-04-21 15:12 11.86179 121.78575 30934 ft 485 kts 147°
2026-04-21 15:13 11.80587 121.82441 30933 ft 484 kts 147°
2026-04-21 15:13 11.75009 121.86305 30932 ft 484 kts 147°
2026-04-21 15:14 11.69434 121.90160 30932 ft 484 kts 147°
2026-04-21 15:14 11.63862 121.93999 30927 ft 483 kts 147°
2026-04-21 15:15 11.58320 121.97816 30925 ft 483 kts 147°
2026-04-21 15:15 11.52750 122.01654 30928 ft 482 kts 147°
2026-04-21 15:16 11.47182 122.05490 30922 ft 482 kts 147°
2026-04-21 15:16 11.41614 122.09320 30931 ft 482 kts 147°
2026-04-21 15:17 11.36063 122.13138 30928 ft 481 kts 147°
2026-04-21 15:17 11.30506 122.16964 30931 ft 481 kts 147°
2026-04-21 15:18 11.24984 122.20771 30936 ft 481 kts 148°
2026-04-21 15:18 11.19423 122.24595 30939 ft 481 kts 147°
2026-04-21 15:19 11.13860 122.28410 30937 ft 481 kts 147°
2026-04-21 15:19 11.08334 122.32200 30936 ft 482 kts 147°
2026-04-21 15:20 11.02760 122.36016 30934 ft 482 kts 147°
2026-04-21 15:20 10.97203 122.39832 30928 ft 482 kts 147°
2026-04-21 15:21 10.91638 122.43660 30924 ft 482 kts 147°
2026-04-21 15:21 10.86068 122.47485 30920 ft 483 kts 147°
2026-04-21 15:22 10.80221 122.50797 30910 ft 482 kts 156°
2026-04-21 15:22 10.74132 122.53674 30916 ft 482 kts 156°
2026-04-21 15:23 10.68040 122.56543 30911 ft 482 kts 156°
2026-04-21 15:23 10.62186 122.59310 30910 ft 436 kts 156°
2026-04-21 15:24 10.59529 122.60571 30909 ft 409 kts 156°
2026-04-21 15:24 10.56978 122.61780 30913 ft 401 kts 156°
2026-04-21 15:24 10.51945 122.64155 30913 ft 397 kts 156°
2026-04-21 15:25 10.46932 122.66522 30906 ft 396 kts 156°
2026-04-21 15:25 10.41921 122.68890 30910 ft 396 kts 156°
2026-04-21 15:26 10.36940 122.71238 30890 ft 402 kts 156°
2026-04-21 15:26 10.34381 122.72444 30197 ft 405 kts 155°
2026-04-21 15:26 10.31868 122.73634 29631 ft 396 kts 155°
2026-04-21 15:27 10.29382 122.74811 29125 ft 391 kts 155°
2026-04-21 15:27 10.26928 122.75969 28651 ft 387 kts 155°
2026-04-21 15:27 10.24499 122.77113 28177 ft 382 kts 155°
2026-04-21 15:27 10.22090 122.78244 27714 ft 378 kts 155°
2026-04-21 15:28 10.19716 122.79358 27247 ft 374 kts 155°
2026-04-21 15:28 10.17361 122.80464 26769 ft 371 kts 155°
2026-04-21 15:28 10.15050 122.81550 26301 ft 369 kts 155°
2026-04-21 15:28 10.12729 122.82643 25822 ft 366 kts 155°
2026-04-21 15:29 10.10423 122.83731 25326 ft 365 kts 155°
2026-04-21 15:29 10.08122 122.84820 24823 ft 364 kts 155°
2026-04-21 15:29 10.05831 122.85904 24308 ft 363 kts 155°
2026-04-21 15:29 10.03540 122.86988 23785 ft 363 kts 155°
2026-04-21 15:30 10.01245 122.88070 23221 ft 363 kts 155°
2026-04-21 15:30 9.98962 122.89145 22671 ft 361 kts 155°
2026-04-21 15:30 9.96684 122.90214 22165 ft 359 kts 155°
2026-04-21 15:30 9.94425 122.91275 21661 ft 357 kts 155°
2026-04-21 15:31 9.92171 122.92335 21149 ft 355 kts 155°
2026-04-21 15:31 9.89938 122.93387 20660 ft 354 kts 155°
2026-04-21 15:31 9.87708 122.94437 20165 ft 352 kts 155°
2026-04-21 15:31 9.85485 122.95484 19678 ft 350 kts 155°
2026-04-21 15:32 9.83275 122.96523 19198 ft 349 kts 155°
2026-04-21 15:32 9.81113 122.97555 18723 ft 348 kts 153°
2026-04-21 15:32 9.79110 122.98935 18239 ft 348 kts 139°
2026-04-21 15:32 9.77481 123.00755 17722 ft 349 kts 126°
2026-04-21 15:33 9.76090 123.02768 17242 ft 347 kts 126°
2026-04-21 15:33 9.74706 123.04761 16774 ft 345 kts 127°
2026-04-21 15:33 9.73327 123.06744 16330 ft 344 kts 127°
2026-04-21 15:33 9.71947 123.08724 15872 ft 343 kts 127°
2026-04-21 15:34 9.70572 123.10693 15425 ft 342 kts 127°
2026-04-21 15:34 9.69203 123.12659 14982 ft 342 kts 127°
2026-04-21 15:34 9.67851 123.14604 14537 ft 342 kts 127°
2026-04-21 15:34 9.66482 123.16572 14094 ft 341 kts 127°
2026-04-21 15:35 9.65111 123.18538 13626 ft 341 kts 127°
2026-04-21 15:35 9.63742 123.20502 13143 ft 340 kts 127°
2026-04-21 15:35 9.62378 123.22459 12690 ft 337 kts 127°
2026-04-21 15:35 9.61033 123.24388 12221 ft 329 kts 127°
2026-04-21 15:36 9.59749 123.26229 11792 ft 312 kts 127°
2026-04-21 15:36 9.58526 123.27984 11364 ft 299 kts 127°
2026-04-21 15:36 9.57357 123.29667 11012 ft 287 kts 126°
2026-04-21 15:36 9.56204 123.31323 10625 ft 288 kts 127°
2026-04-21 15:37 9.55043 123.32986 10203 ft 289 kts 126°
2026-04-21 15:37 9.53877 123.34655 9778 ft 291 kts 126°
2026-04-21 15:37 9.52706 123.36333 9279 ft 291 kts 125°
2026-04-21 15:37 9.51536 123.38013 8844 ft 291 kts 125°
2026-04-21 15:38 9.50378 123.39674 8440 ft 288 kts 124°
2026-04-21 15:38 9.49230 123.41319 8036 ft 285 kts 124°
2026-04-21 15:38 9.48091 123.42951 7606 ft 282 kts 124°
2026-04-21 15:38 9.46976 123.44547 7190 ft 280 kts 124°
2026-04-21 15:39 9.45853 123.46155 6747 ft 278 kts 124°
2026-04-21 15:39 9.44748 123.47736 6058 ft 273 kts 123°
2026-04-21 15:39 9.43668 123.49278 5450 ft 264 kts 123°
2026-04-21 15:39 9.42621 123.50760 4934 ft 252 kts 124°
2026-04-21 15:40 9.41362 123.51950 4428 ft 247 kts 145°
2026-04-21 15:40 9.39757 123.52571 3913 ft 249 kts 167°
2026-04-21 15:40 9.38022 123.52540 3372 ft 254 kts 189°
2026-04-21 15:40 9.36339 123.51823 3051 ft 273 kts 206°
2026-04-21 15:41 9.34699 123.50918 2920 ft 262 kts 211°
2026-04-21 15:41 9.33391 123.49662 2613 ft 258 kts 235°
2026-04-21 15:41 9.32661 123.48075 2457 ft 247 kts 257°
2026-04-21 15:41 9.32525 123.46399 2345 ft 233 kts 276°
2026-04-21 15:42 9.32618 123.44792 2248 ft 224 kts 275°
2026-04-21 15:42 9.32702 123.43245 2144 ft 214 kts 275°
2026-04-21 15:42 9.32777 123.41802 2053 ft 196 kts 275°
2026-04-21 15:42 9.32848 123.40483 1901 ft 180 kts 275°
2026-04-21 15:43 9.32913 123.39273 1654 ft 163 kts 277°
2026-04-21 15:43 9.32968 123.38196 1421 ft 145 kts 277°
2026-04-21 15:43 9.33020 123.37197 1247 ft 138 kts 278°
2026-04-21 15:43 9.33072 123.36247 1065 ft 132 kts 277°
2026-04-21 15:44 9.33124 123.35324 890 ft 132 kts 277°
2026-04-21 15:44 9.33178 123.34398 718 ft 130 kts 275°
2026-04-21 15:44 9.33230 123.33487 537 ft 130 kts 276°
2026-04-21 15:44 9.33282 123.32584 367 ft 127 kts 276°
2026-04-21 15:45 9.33337 123.31696 239 ft 127 kts 274°
2026-04-21 15:45 9.33380 123.30812 51 ft 122 kts 276°
2026-04-21 15:45 9.33423 123.30103 42 ft 64 kts 273°
2026-04-21 15:45 9.33433 123.29924 48 ft 11 kts 273°
2026-04-21 15:46 9.33441 123.29787 50 ft 21 kts 274°
2026-04-21 15:46 9.33449 123.29633 51 ft 20 kts 273°
2026-04-21 15:46 9.33451 123.29502 51 ft 12 kts 252°
2026-04-21 15:46 9.33397 123.29512 52 ft 10 kts 137°
2026-04-21 15:47 9.33374 123.29577 51 ft 10 kts 99°
2026-04-21 15:47 9.33338 123.29611 50 ft 3 kts 148°
2026-04-21 15:47 9.33324 123.29619 50 ft 0 kts 149°